Wetterdaten: Sonntag, 22.03.2015
Datum Zeit Auen-Temp. Luftfeuchte Luftdruck Regen Wind Richtung Richtung Taupunkt Windchill Windben
22.03.2015 00:00 0,5 C 87 % 1015,4 hPa 0,0 l/m 0,0 km/h (0 Bft) SW 225 -1,4 C 0,5 C 0,0 km/h (0 Bft)
22.03.2015 00:05 0,4 C 87 % 1015,3 hPa 0,0 l/m 0,0 km/h (0 Bft) W-SW 247 -1,5 C 0,4 C 0,0 km/h (0 Bft)
22.03.2015 00:10 0,4 C 87 % 1015,3 hPa 0,0 l/m 0,0 km/h (0 Bft) W-SW 247 -1,5 C 0,4 C 0,0 km/h (0 Bft)
22.03.2015 00:15 0,3 C 87 % 1015,3 hPa 0,0 l/m 0,0 km/h (0 Bft) W-SW 247 -1,6 C 0,3 C 0,0 km/h (0 Bft)
22.03.2015 00:20 0,3 C 87 % 1015,3 hPa 0,0 l/m 0,0 km/h (0 Bft) W-SW 247 -1,6 C 0,3 C 0,0 km/h (0 Bft)
22.03.2015 00:25 0,3 C 87 % 1015,4 hPa 0,0 l/m 0,0 km/h (0 Bft) W-SW 247 -1,6 C 0,3 C 0,0 km/h (0 Bft)
22.03.2015 00:30 0,3 C 87 % 1015,4 hPa 0,0 l/m 0,0 km/h (0 Bft) W-SW 247 -1,6 C 0,3 C 0,0 km/h (0 Bft)
22.03.2015 00:35 0,3 C 87 % 1015,4 hPa 0,0 l/m 0,0 km/h (0 Bft) W-SW 247 -1,6 C 0,3 C 0,0 km/h (0 Bft)
22.03.2015 00:40 0,2 C 87 % 1015,4 hPa 0,0 l/m 0,0 km/h (0 Bft) W-SW 247 -1,7 C 0,2 C 0,0 km/h (0 Bft)
22.03.2015 00:45 0,2 C 87 % 1015,4 hPa 0,0 l/m 0,0 km/h (0 Bft) W-SW 247 -1,7 C 0,2 C 0,0 km/h (0 Bft)
22.03.2015 00:50 0,2 C 88 % 1015,4 hPa 0,0 l/m 0,0 km/h (0 Bft) W-SW 247 -1,5 C 0,2 C 0,0 km/h (0 Bft)
22.03.2015 00:55 0,2 C 88 % 1015,4 hPa 0,0 l/m 0,0 km/h (0 Bft) W-SW 247 -1,5 C 0,2 C 0,0 km/h (0 Bft)
22.03.2015 01:00 0,2 C 88 % 1015,4 hPa 0,0 l/m 0,0 km/h (0 Bft) W-SW 247 -1,5 C 0,2 C 0,0 km/h (0 Bft)
22.03.2015 01:05 0,2 C 88 % 1015,8 hPa 0,0 l/m 0,0 km/h (0 Bft) W-SW 247 -1,5 C 0,2 C 0,0 km/h (0 Bft)
22.03.2015 01:10 0,2 C 88 % 1015,8 hPa 0,0 l/m 0,0 km/h (0 Bft) W-SW 247 -1,5 C 0,2 C 0,0 km/h (0 Bft)
22.03.2015 01:15 0,2 C 88 % 1015,8 hPa 0,0 l/m 0,0 km/h (0 Bft) W-SW 247 -1,5 C 0,2 C 0,0 km/h (0 Bft)
22.03.2015 01:20 0,2 C 88 % 1015,8 hPa 0,0 l/m 0,0 km/h (0 Bft) W-SW 247 -1,5 C 0,2 C 0,0 km/h (0 Bft)
22.03.2015 01:25 0,2 C 88 % 1015,8 hPa 0,0 l/m 0,0 km/h (0 Bft) W-SW 247 -1,5 C 0,2 C 0,0 km/h (0 Bft)
22.03.2015 01:30 0,2 C 88 % 1015,8 hPa 0,0 l/m 0,0 km/h (0 Bft) W-SW 247 -1,5 C 0,2 C 0,0 km/h (0 Bft)
22.03.2015 01:35 0,2 C 88 % 1015,8 hPa 0,0 l/m 0,0 km/h (0 Bft) W-SW 247 -1,5 C 0,2 C 0,0 km/h (0 Bft)
22.03.2015 01:40 0,2 C 88 % 1015,8 hPa 0,0 l/m 0,0 km/h (0 Bft) W-SW 247 -1,5 C 0,2 C 0,0 km/h (0 Bft)
22.03.2015 01:45 0,2 C 88 % 1015,9 hPa 0,0 l/m 0,0 km/h (0 Bft) W-SW 247 -1,5 C 0,2 C 0,0 km/h (0 Bft)
22.03.2015 01:50 0,2 C 88 % 1015,9 hPa 0,0 l/m 0,0 km/h (0 Bft) W-SW 247 -1,5 C 0,2 C 0,0 km/h (0 Bft)
22.03.2015 01:55 0,2 C 88 % 1015,9 hPa 0,0 l/m 0,0 km/h (0 Bft) W-SW 247 -1,5 C 0,2 C 0,0 km/h (0 Bft)
22.03.2015 02:00 0,2 C 88 % 1015,9 hPa 0,0 l/m 0,0 km/h (0 Bft) W-SW 247 -1,5 C 0,2 C 0,0 km/h (0 Bft)
22.03.2015 02:05 0,2 C 88 % 1016,0 hPa 0,0 l/m 0,0 km/h (0 Bft) W-SW 247 -1,5 C 0,2 C 0,0 km/h (0 Bft)
22.03.2015 02:10 0,2 C 88 % 1016,0 hPa 0,0 l/m 0,0 km/h (0 Bft) W-SW 247 -1,5 C 0,2 C 0,0 km/h (0 Bft)
22.03.2015 02:15 0,2 C 88 % 1016,0 hPa 0,0 l/m 0,0 km/h (0 Bft) W-SW 247 -1,5 C 0,2 C 0,0 km/h (0 Bft)
22.03.2015 02:20 0,2 C 88 % 1016,0 hPa 0,0 l/m 0,0 km/h (0 Bft) W-SW 247 -1,5 C 0,2 C 0,0 km/h (0 Bft)
22.03.2015 02:25 0,2 C 88 % 1015,9 hPa 0,0 l/m 0,0 km/h (0 Bft) W-SW 247 -1,5 C 0,2 C 0,0 km/h (0 Bft)
22.03.2015 02:30 0,2 C 88 % 1015,9 hPa 0,0 l/m 0,0 km/h (0 Bft) W-SW 247 -1,5 C 0,2 C 0,0 km/h (0 Bft)
22.03.2015 02:35 0,2 C 88 % 1015,9 hPa 0,0 l/m 0,0 km/h (0 Bft) W-SW 247 -1,5 C 0,2 C 0,0 km/h (0 Bft)
22.03.2015 02:40 0,2 C 88 % 1015,9 hPa 0,0 l/m 0,0 km/h (0 Bft) W-SW 247 -1,5 C 0,2 C 0,0 km/h (0 Bft)
22.03.2015 02:45 0,2 C 89 % 1015,9 hPa 0,0 l/m 0,0 km/h (0 Bft) W-SW 247 -1,4 C 0,2 C 0,0 km/h (0 Bft)
22.03.2015 02:50 0,2 C 89 % 1015,9 hPa 0,0 l/m 0,0 km/h (0 Bft) W-SW 247 -1,4 C 0,2 C 0,0 km/h (0 Bft)
22.03.2015 02:55 0,2 C 89 % 1015,9 hPa 0,0 l/m 0,0 km/h (0 Bft) W-SW 247 -1,4 C 0,2 C 0,0 km/h (0 Bft)
22.03.2015 03:00 0,2 C 89 % 1015,9 hPa 0,0 l/m 0,0 km/h (0 Bft) W-SW 247 -1,4 C 0,2 C 0,0 km/h (0 Bft)
22.03.2015 03:05 0,2 C 89 % 1015,9 hPa 0,0 l/m 0,0 km/h (0 Bft) W-SW 247 -1,4 C 0,2 C 0,0 km/h (0 Bft)
22.03.2015 03:10 0,2 C 89 % 1015,9 hPa 0,0 l/m 0,0 km/h (0 Bft) W-SW 247 -1,4 C 0,2 C 0,0 km/h (0 Bft)
22.03.2015 03:15 0,2 C 89 % 1015,9 hPa 0,0 l/m 0,0 km/h (0 Bft) W-SW 247 -1,4 C 0,2 C 0,0 km/h (0 Bft)
22.03.2015 03:20 0,2 C 89 % 1015,9 hPa 0,0 l/m 0,0 km/h (0 Bft) W-SW 247 -1,4 C 0,2 C 0,0 km/h (0 Bft)
22.03.2015 03:25 0,2 C 89 % 1015,9 hPa 0,0 l/m 0,0 km/h (0 Bft) W-SW 247 -1,4 C 0,2 C 0,0 km/h (0 Bft)
22.03.2015 03:30 0,2 C 89 % 1015,9 hPa 0,0 l/m 0,0 km/h (0 Bft) W-SW 247 -1,4 C 0,2 C 0,0 km/h (0 Bft)
22.03.2015 03:35 0,2 C 89 % 1015,9 hPa 0,0 l/m 0,0 km/h (0 Bft) W-SW 247 -1,4 C 0,2 C 0,0 km/h (0 Bft)
22.03.2015 03:40 0,2 C 89 % 1015,9 hPa 0,0 l/m 0,0 km/h (0 Bft) W-SW 247 -1,4 C 0,2 C 0,0 km/h (0 Bft)
22.03.2015 03:45 0,1 C 85 % 1016,0 hPa 0,0 l/m 0,0 km/h (0 Bft) W-SW 247 -2,1 C 0,1 C 0,0 km/h (0 Bft)
22.03.2015 03:50 0,2 C 89 % 1016,0 hPa 0,0 l/m 0,0 km/h (0 Bft) W-SW 247 -1,4 C 0,2 C 0,0 km/h (0 Bft)
22.03.2015 03:55 0,1 C 85 % 1016,0 hPa 0,0 l/m 0,0 km/h (0 Bft) W-SW 247 -2,1 C 0,1 C 0,0 km/h (0 Bft)
22.03.2015 04:00 0,2 C 89 % 1016,0 hPa 0,0 l/m 0,0 km/h (0 Bft) W-SW 247 -1,4 C 0,2 C 0,0 km/h (0 Bft)
22.03.2015 04:05 0,1 C 85 % 1015,9 hPa 0,0 l/m 0,0 km/h (0 Bft) W-SW 247 -2,1 C 0,1 C 0,0 km/h (0 Bft)
22.03.2015 04:10 0,1 C 85 % 1015,9 hPa 0,0 l/m 0,0 km/h (0 Bft) W-SW 247 -2,1 C 0,1 C 0,0 km/h (0 Bft)
22.03.2015 04:15 0,1 C 85 % 1015,9 hPa 0,0 l/m 0,0 km/h (0 Bft) W-SW 247 -2,1 C 0,1 C 0,0 km/h (0 Bft)
22.03.2015 04:20 0,1 C 89 % 1015,9 hPa 0,0 l/m 0,0 km/h (0 Bft) W-SW 247 -1,5 C 0,1 C 0,0 km/h (0 Bft)
22.03.2015 04:25 0,1 C 89 % 1016,0 hPa 0,0 l/m 0,0 km/h (0 Bft) W-SW 247 -1,5 C 0,1 C 0,0 km/h (0 Bft)
22.03.2015 04:30 0,1 C 89 % 1016,0 hPa 0,0 l/m 0,0 km/h (0 Bft) W-SW 247 -1,5 C 0,1 C 0,0 km/h (0 Bft)
22.03.2015 04:35 0,1 C 89 % 1016,0 hPa 0,0 l/m 0,0 km/h (0 Bft) W-SW 247 -1,5 C 0,1 C 0,0 km/h (0 Bft)
22.03.2015 04:40 0,1 C 89 % 1016,0 hPa 0,0 l/m 0,0 km/h (0 Bft) W-SW 247 -1,5 C 0,1 C 0,0 km/h (0 Bft)
22.03.2015 04:45 0,1 C 89 % 1016,0 hPa 0,0 l/m 0,0 km/h (0 Bft) W-SW 247 -1,5 C 0,1 C 0,0 km/h (0 Bft)
22.03.2015 04:50 0,1 C 89 % 1016,0 hPa 0,0 l/m 0,0 km/h (0 Bft) W-SW 247 -1,5 C 0,1 C 0,0 km/h (0 Bft)
22.03.2015 04:55 0,1 C 89 % 1016,0 hPa 0,0 l/m 0,0 km/h (0 Bft) W-SW 247 -1,5 C 0,1 C 0,0 km/h (0 Bft)
22.03.2015 05:00 0,1 C 89 % 1016,0 hPa 0,0 l/m 0,0 km/h (0 Bft) W-SW 247 -1,5 C 0,1 C 0,0 km/h (0 Bft)
22.03.2015 05:05 0,1 C 89 % 1016,0 hPa 0,0 l/m 0,0 km/h (0 Bft) W-SW 247 -1,5 C 0,1 C 0,0 km/h (0 Bft)
22.03.2015 05:10 0,1 C 89 % 1016,0 hPa 0,0 l/m 0,0 km/h (0 Bft) W-SW 247 -1,5 C 0,1 C 0,0 km/h (0 Bft)
22.03.2015 05:15 0,1 C 89 % 1016,0 hPa 0,0 l/m 0,0 km/h (0 Bft) W-SW 247 -1,5 C 0,1 C 0,0 km/h (0 Bft)
22.03.2015 05:20 0,1 C 89 % 1016,0 hPa 0,0 l/m 0,0 km/h (0 Bft) W-SW 247 -1,5 C 0,1 C 0,0 km/h (0 Bft)
22.03.2015 05:25 0,1 C 89 % 1015,9 hPa 0,0 l/m 0,0 km/h (0 Bft) W-SW 247 -1,5 C 0,1 C 0,0 km/h (0 Bft)
22.03.2015 05:30 0,1 C 89 % 1015,9 hPa 0,0 l/m 0,0 km/h (0 Bft) W-SW 247 -1,5 C 0,1 C 0,0 km/h (0 Bft)
22.03.2015 05:35 0,1 C 89 % 1015,9 hPa 0,0 l/m 0,0 km/h (0 Bft) W-SW 247 -1,5 C 0,1 C 0,0 km/h (0 Bft)
22.03.2015 05:40 0,1 C 89 % 1015,9 hPa 0,0 l/m 0,0 km/h (0 Bft) W-SW 247 -1,5 C 0,1 C 0,0 km/h (0 Bft)
22.03.2015 05:45 0,1 C 89 % 1016,1 hPa 0,0 l/m 0,0 km/h (0 Bft) W-SW 247 -1,5 C 0,1 C 0,0 km/h (0 Bft)
22.03.2015 05:50 0,1 C 89 % 1016,1 hPa 0,0 l/m 0,0 km/h (0 Bft) W-SW 247 -1,5 C 0,1 C 0,0 km/h (0 Bft)
22.03.2015 05:55 0,1 C 89 % 1016,1 hPa 0,0 l/m 0,0 km/h (0 Bft) W-SW 247 -1,5 C 0,1 C 0,0 km/h (0 Bft)
22.03.2015 06:00 0,1 C 89 % 1016,1 hPa 0,0 l/m 0,0 km/h (0 Bft) W-SW 247 -1,5 C 0,1 C 0,0 km/h (0 Bft)
22.03.2015 06:05 0,1 C 89 % 1016,1 hPa 0,0 l/m 0,0 km/h (0 Bft) W-SW 247 -1,5 C 0,1 C 0,0 km/h (0 Bft)
22.03.2015 06:10 0,1 C 89 % 1016,1 hPa 0,0 l/m 0,0 km/h (0 Bft) W-SW 247 -1,5 C 0,1 C 0,0 km/h (0 Bft)
22.03.2015 06:15 0,1 C 89 % 1016,1 hPa 0,0 l/m 0,0 km/h (0 Bft) W-SW 247 -1,5 C 0,1 C 0,0 km/h (0 Bft)
22.03.2015 06:20 0,1 C 89 % 1016,1 hPa 0,0 l/m 0,0 km/h (0 Bft) W-SW 247 -1,5 C 0,1 C 0,0 km/h (0 Bft)
22.03.2015 06:25 0,1 C 89 % 1016,4 hPa 0,0 l/m 0,0 km/h (0 Bft) W-SW 247 -1,5 C 0,1 C 0,0 km/h (0 Bft)
22.03.2015 06:30 0,1 C 89 % 1016,4 hPa 0,0 l/m 0,0 km/h (0 Bft) W-SW 247 -1,5 C 0,1 C 0,0 km/h (0 Bft)
22.03.2015 06:35 0,1 C 86 % 1016,4 hPa 0,0 l/m 0,0 km/h (0 Bft) W-SW 247 -2,0 C 0,1 C 0,0 km/h (0 Bft)
22.03.2015 06:40 0,1 C 86 % 1016,4 hPa 0,0 l/m 0,0 km/h (0 Bft) W-SW 247 -2,0 C 0,1 C 0,0 km/h (0 Bft)
22.03.2015 06:45 0,1 C 86 % 1016,3 hPa 0,0 l/m 0,0 km/h (0 Bft) W-SW 247 -2,0 C 0,1 C 0,0 km/h (0 Bft)
22.03.2015 06:50 0,1 C 86 % 1016,3 hPa 0,0 l/m 0,0 km/h (0 Bft) W-SW 247 -2,0 C 0,1 C 0,0 km/h (0 Bft)
22.03.2015 06:55 0,1 C 86 % 1016,3 hPa 0,0 l/m 0,0 km/h (0 Bft) W-SW 247 -2,0 C 0,1 C 0,0 km/h (0 Bft)
22.03.2015 07:00 0,2 C 86 % 1016,3 hPa 0,0 l/m 0,0 km/h (0 Bft) W-SW 247 -1,9 C 0,2 C 0,0 km/h (0 Bft)
22.03.2015 07:05 0,2 C 86 % 1016,6 hPa 0,0 l/m 0,0 km/h (0 Bft) W-SW 247 -1,9 C 0,2 C 0,0 km/h (0 Bft)
22.03.2015 07:10 0,2 C 86 % 1016,6 hPa 0,0 l/m 0,0 km/h (0 Bft) W-SW 247 -1,9 C 0,2 C 0,0 km/h (0 Bft)
22.03.2015 07:15 0,2 C 86 % 1016,6 hPa 0,0 l/m 0,0 km/h (0 Bft) W-SW 247 -1,9 C 0,2 C 0,0 km/h (0 Bft)
22.03.2015 07:20 0,2 C 86 % 1016,6 hPa 0,0 l/m 0,0 km/h (0 Bft) W-SW 247 -1,9 C 0,2 C 0,0 km/h (0 Bft)
22.03.2015 07:25 0,2 C 86 % 1016,8 hPa 0,0 l/m 0,0 km/h (0 Bft) W-SW 247 -1,9 C 0,2 C 0,0 km/h (0 Bft)
22.03.2015 07:30 0,2 C 86 % 1016,8 hPa 0,0 l/m 0,0 km/h (0 Bft) W-SW 247 -1,9 C 0,2 C 0,0 km/h (0 Bft)
22.03.2015 07:35 0,2 C 87 % 1016,8 hPa 0,7 l/m 0,0 km/h (0 Bft) W-SW 247 -1,7 C 0,2 C 0,0 km/h (0 Bft)
22.03.2015 07:40 0,2 C 87 % 1016,8 hPa 0,0 l/m 0,0 km/h (0 Bft) N-NW 337 -1,7 C 0,2 C 0,0 km/h (0 Bft)
22.03.2015 07:45 0,2 C 87 % 1016,8 hPa 0,0 l/m 0,0 km/h (0 Bft) N-NW 337 -1,7 C 0,2 C 0,0 km/h (0 Bft)
22.03.2015 07:50 0,2 C 87 % 1016,8 hPa 0,0 l/m 0,0 km/h (0 Bft) N-NW 337 -1,7 C 0,2 C 0,0 km/h (0 Bft)
22.03.2015 07:55 0,3 C 87 % 1016,8 hPa 0,0 l/m 0,0 km/h (0 Bft) N 360 -1,6 C 0,3 C 0,0 km/h (0 Bft)
22.03.2015 08:00 0,3 C 87 % 1016,8 hPa 0,0 l/m 0,0 km/h (0 Bft) N-NO 22 -1,6 C 0,3 C 0,0 km/h (0 Bft)
22.03.2015 08:05 0,3 C 87 % 1017,1 hPa 0,0 l/m 0,0 km/h (0 Bft) O 90 -1,6 C 0,3 C 0,0 km/h (0 Bft)
22.03.2015 08:10 0,3 C 87 % 1017,1 hPa 0,0 l/m 0,2 km/h (0 Bft) NO 45 -1,6 C 0,3 C 3,7 km/h (1 Bft)
22.03.2015 08:15 0,3 C 87 % 1017,1 hPa 0,0 l/m 0,5 km/h (0 Bft) O-NO 67 -1,6 C 0,3 C 0,0 km/h (0 Bft)
22.03.2015 08:20 0,3 C 87 % 1017,1 hPa 0,0 l/m 0,6 km/h (0 Bft) N-NO 22 -1,6 C 0,3 C 0,0 km/h (0 Bft)
22.03.2015 08:25 0,3 C 87 % 1016,9 hPa 0,0 l/m 0,2 km/h (0 Bft) O-NO 67 -1,6 C 0,3 C 1,6 km/h (1 Bft)
22.03.2015 08:30 0,3 C 87 % 1016,9 hPa 0,0 l/m 0,3 km/h (0 Bft) N-NO 22 -1,6 C 0,3 C 0,0 km/h (0 Bft)
22.03.2015 08:35 0,3 C 87 % 1016,9 hPa 0,0 l/m 1,0 km/h (0 Bft) NO 45 -1,6 C 0,3 C 2,3 km/h (1 Bft)
22.03.2015 08:40 0,4 C 87 % 1016,9 hPa 0,0 l/m 1,1 km/h (1 Bft) N-NO 22 -1,5 C 0,4 C 3,4 km/h (1 Bft)
22.03.2015 08:45 0,4 C 87 % 1017,3 hPa 0,0 l/m 0,6 km/h (0 Bft) O-SO 112 -1,5 C 0,4 C 0,0 km/h (0 Bft)
22.03.2015 08:50 0,4 C 87 % 1017,3 hPa 0,0 l/m 0,6 km/h (0 Bft) NO 45 -1,5 C 0,4 C 0,0 km/h (0 Bft)
22.03.2015 08:55 0,4 C 87 % 1017,3 hPa 0,0 l/m 1,1 km/h (1 Bft) N 360 -1,5 C 0,4 C 1,9 km/h (1 Bft)
22.03.2015 09:00 0,5 C 87 % 1017,3 hPa 0,0 l/m 1,3 km/h (1 Bft) NO 45 -1,4 C 0,5 C 3,5 km/h (1 Bft)
22.03.2015 09:05 0,5 C 87 % 1017,1 hPa 0,0 l/m 1,8 km/h (1 Bft) N-NO 22 -1,4 C 0,5 C 6,1 km/h (2 Bft)
22.03.2015 09:10 0,5 C 87 % 1017,1 hPa 0,0 l/m 1,9 km/h (1 Bft) NO 45 -1,4 C 0,5 C 2,1 km/h (1 Bft)
22.03.2015 09:15 0,5 C 87 % 1017,1 hPa 0,0 l/m 2,1 km/h (1 Bft) O-NO 67 -1,4 C 0,5 C 2,1 km/h (1 Bft)
22.03.2015 09:20 0,5 C 87 % 1017,1 hPa 0,0 l/m 2,4 km/h (1 Bft) N-NO 22 -1,4 C 0,5 C 1,6 km/h (1 Bft)
22.03.2015 09:25 0,7 C 87 % 1017,5 hPa 0,0 l/m 2,1 km/h (1 Bft) O-NO 67 -1,2 C 0,7 C 2,4 km/h (1 Bft)
22.03.2015 09:30 0,7 C 87 % 1017,5 hPa 0,0 l/m 1,9 km/h (1 Bft) NO 45 -1,2 C 0,7 C 3,2 km/h (1 Bft)
22.03.2015 09:35 0,9 C 87 % 1017,5 hPa 0,0 l/m 2,3 km/h (1 Bft) O-NO 67 -1,0 C 0,9 C 4,2 km/h (1 Bft)
22.03.2015 09:40 0,7 C 87 % 1017,5 hPa 0,0 l/m 2,3 km/h (1 Bft) O-NO 67 -1,2 C 0,7 C 3,2 km/h (1 Bft)
22.03.2015 09:45 0,7 C 87 % 1017,6 hPa 0,0 l/m 2,7 km/h (1 Bft) N-NO 22 -1,2 C 0,7 C 3,9 km/h (1 Bft)
22.03.2015 09:50 0,7 C 87 % 1017,6 hPa 0,0 l/m 2,7 km/h (1 Bft) N 360 -1,2 C 0,7 C 1,6 km/h (1 Bft)
22.03.2015 09:55 0,9 C 87 % 1017,6 hPa 0,0 l/m 2,9 km/h (1 Bft) N 360 -1,0 C 0,9 C 6,3 km/h (2 Bft)
22.03.2015 10:00 0,9 C 87 % 1017,6 hPa 0,0 l/m 2,6 km/h (1 Bft) NO 45 -1,0 C 0,9 C 2,9 km/h (1 Bft)
22.03.2015 10:05 0,9 C 87 % 1017,6 hPa 0,0 l/m 2,3 km/h (1 Bft) O-NO 67 -1,0 C 0,9 C 6,6 km/h (2 Bft)
22.03.2015 10:10 1,0 C 87 % 1017,6 hPa 0,0 l/m 1,8 km/h (1 Bft) N-NO 22 -0,9 C 1,0 C 2,7 km/h (1 Bft)
22.03.2015 10:15 0,9 C 87 % 1017,6 hPa 0,0 l/m 1,6 km/h (1 Bft) N-NO 22 -1,0 C 0,9 C 3,7 km/h (1 Bft)
22.03.2015 10:20 0,9 C 87 % 1017,6 hPa 0,0 l/m 2,3 km/h (1 Bft) NO 45 -1,0 C 0,9 C 3,7 km/h (1 Bft)
22.03.2015 10:25 0,9 C 87 % 1017,7 hPa 0,0 l/m 2,7 km/h (1 Bft) N-NO 22 -1,0 C 0,9 C 6,8 km/h (2 Bft)
22.03.2015 10:30 0,9 C 87 % 1017,7 hPa 0,0 l/m 2,7 km/h (1 Bft) S 180 -1,0 C 0,9 C 2,7 km/h (1 Bft)
22.03.2015 10:35 0,7 C 87 % 1017,7 hPa 0,0 l/m 3,1 km/h (1 Bft) NO 45 -1,2 C 0,7 C 8,7 km/h (2 Bft)
22.03.2015 10:40 0,7 C 87 % 1017,7 hPa 0,0 l/m 3,2 km/h (1 Bft) N-NO 22 -1,2 C 0,7 C 2,3 km/h (1 Bft)
22.03.2015 10:45 0,7 C 87 % 1017,9 hPa 0,0 l/m 2,6 km/h (1 Bft) O-NO 67 -1,2 C 0,7 C 3,9 km/h (1 Bft)
22.03.2015 10:50 0,7 C 87 % 1017,9 hPa 0,0 l/m 2,3 km/h (1 Bft) SO 135 -1,2 C 0,7 C 1,9 km/h (1 Bft)
22.03.2015 10:55 0,9 C 87 % 1017,9 hPa 0,0 l/m 1,9 km/h (1 Bft) NO 45 -1,0 C 0,9 C 2,7 km/h (1 Bft)
22.03.2015 11:00 0,9 C 87 % 1017,9 hPa 0,0 l/m 1,3 km/h (1 Bft) NO 45 -1,0 C 0,9 C 3,2 km/h (1 Bft)
22.03.2015 11:05 0,9 C 87 % 1017,6 hPa 0,0 l/m 2,1 km/h (1 Bft) O-NO 67 -1,0 C 0,9 C 3,5 km/h (1 Bft)
22.03.2015 11:10 0,9 C 87 % 1017,6 hPa 0,0 l/m 2,7 km/h (1 Bft) NO 45 -1,0 C 0,9 C 2,6 km/h (1 Bft)
22.03.2015 11:15 1,0 C 87 % 1017,6 hPa 0,0 l/m 1,9 km/h (1 Bft) N-NO 22 -0,9 C 1,0 C 0,0 km/h (0 Bft)
22.03.2015 11:20 1,0 C 87 % 1017,6 hPa 0,0 l/m 1,3 km/h (1 Bft) NO 45 -0,9 C 1,0 C 1,8 km/h (1 Bft)
22.03.2015 11:25 1,0 C 87 % 1017,6 hPa 0,0 l/m 1,1 km/h (1 Bft) O-NO 67 -0,9 C 1,0 C 3,4 km/h (1 Bft)
22.03.2015 11:30 1,0 C 87 % 1017,6 hPa 0,0 l/m 1,1 km/h (1 Bft) N-NW 337 -0,9 C 1,0 C 2,6 km/h (1 Bft)
22.03.2015 11:35 1,1 C 87 % 1017,6 hPa 0,0 l/m 1,1 km/h (1 Bft) N-NO 22 -0,8 C 1,1 C 2,3 km/h (1 Bft)
22.03.2015 11:40 1,1 C 87 % 1017,6 hPa 0,0 l/m 0,8 km/h (0 Bft) NO 45 -0,8 C 1,1 C 0,0 km/h (0 Bft)
22.03.2015 11:45 1,3 C 87 % 1017,6 hPa 0,0 l/m 0,5 km/h (0 Bft) N-NO 22 -0,6 C 1,3 C 2,3 km/h (1 Bft)
22.03.2015 11:50 1,3 C 87 % 1017,6 hPa 0,0 l/m 0,6 km/h (0 Bft) N-NO 22 -0,6 C 1,3 C 0,0 km/h (0 Bft)
22.03.2015 11:55 1,4 C 87 % 1017,6 hPa 0,0 l/m 0,6 km/h (0 Bft) O 90 -0,5 C 1,4 C 0,0 km/h (0 Bft)
22.03.2015 12:00 1,4 C 87 % 1017,6 hPa 0,0 l/m 0,3 km/h (0 Bft) O-NO 67 -0,5 C 1,4 C 2,7 km/h (1 Bft)
22.03.2015 12:05 1,4 C 87 % 1017,4 hPa 0,0 l/m 0,2 km/h (0 Bft) O-SO 112 -0,5 C 1,4 C 0,0 km/h (0 Bft)
22.03.2015 12:10 1,5 C 87 % 1017,4 hPa 0,0 l/m 1,8 km/h (1 Bft) O-NO 67 -0,4 C 1,5 C 2,3 km/h (1 Bft)
22.03.2015 12:15 1,6 C 87 % 1017,4 hPa 0,0 l/m 2,6 km/h (1 Bft) O-SO 112 -0,3 C 1,6 C 8,9 km/h (2 Bft)
22.03.2015 12:20 1,6 C 87 % 1017,4 hPa 0,0 l/m 1,8 km/h (1 Bft) W-NW 292 -0,3 C 1,6 C 0,0 km/h (0 Bft)
22.03.2015 12:25 1,8 C 87 % 1017,3 hPa 0,0 l/m 0,8 km/h (0 Bft) O-SO 112 -0,1 C 1,8 C 0,0 km/h (0 Bft)
22.03.2015 12:30 1,8 C 87 % 1017,3 hPa 0,0 l/m 1,0 km/h (0 Bft) N-NO 22 -0,1 C 1,8 C 3,7 km/h (1 Bft)
22.03.2015 12:35 1,8 C 87 % 1017,3 hPa 0,0 l/m 2,6 km/h (1 Bft) O-SO 112 -0,1 C 1,8 C 11,4 km/h (2 Bft)
22.03.2015 12:40 1,9 C 87 % 1017,3 hPa 0,0 l/m 3,2 km/h (1 Bft) N-NO 22 -0,0 C 1,9 C 4,2 km/h (1 Bft)
22.03.2015 12:45 2,0 C 87 % 1017,1 hPa 0,0 l/m 2,7 km/h (1 Bft) O-NO 67 0,1 C 2,0 C 5,5 km/h (1 Bft)
22.03.2015 12:50 2,0 C 87 % 1017,1 hPa 0,0 l/m 3,1 km/h (1 Bft) NO 45 0,1 C 2,0 C 5,6 km/h (1 Bft)
22.03.2015 12:55 2,0 C 87 % 1017,1 hPa 0,0 l/m 3,1 km/h (1 Bft) NO 45 0,1 C 2,0 C 0,0 km/h (0 Bft)
22.03.2015 13:00 2,0 C 87 % 1017,1 hPa 0,0 l/m 3,5 km/h (1 Bft) NO 45 0,1 C 2,0 C 9,8 km/h (2 Bft)
22.03.2015 13:05 1,9 C 88 % 1017,1 hPa 0,0 l/m 4,7 km/h (1 Bft) O-NO 67 0,1 C 0,7 C 13,0 km/h (3 Bft)
22.03.2015 13:10 1,9 C 88 % 1017,1 hPa 0,0 l/m 6,3 km/h (2 Bft) NO 45 0,1 C 0,0 C 9,3 km/h (2 Bft)
22.03.2015 13:15 1,9 C 88 % 1017,1 hPa 0,0 l/m 4,3 km/h (1 Bft) N-NW 337 0,1 C 1,9 C 4,7 km/h (1 Bft)
22.03.2015 13:20 1,9 C 88 % 1017,1 hPa 0,7 l/m 4,3 km/h (1 Bft) O-NO 67 0,1 C 1,9 C 4,3 km/h (1 Bft)
22.03.2015 13:25 1,9 C 88 % 1017,1 hPa 0,0 l/m 4,2 km/h (1 Bft) O 90 0,1 C 1,9 C 2,6 km/h (1 Bft)
22.03.2015 13:30 2,0 C 87 % 1017,1 hPa 0,0 l/m 3,2 km/h (1 Bft) O 90 0,1 C 2,0 C 2,7 km/h (1 Bft)
22.03.2015 13:35 1,9 C 88 % 1017,1 hPa 0,7 l/m 2,9 km/h (1 Bft) NO 45 0,1 C 1,9 C 8,7 km/h (2 Bft)
22.03.2015 13:40 1,9 C 88 % 1017,1 hPa 0,0 l/m 4,3 km/h (1 Bft) O-NO 67 0,1 C 1,9 C 8,2 km/h (2 Bft)
22.03.2015 13:45 1,9 C 88 % 1017,2 hPa 0,0 l/m 5,8 km/h (2 Bft) NO 45 0,1 C 0,2 C 14,2 km/h (3 Bft)
22.03.2015 13:50 1,9 C 88 % 1017,2 hPa 0,7 l/m 5,3 km/h (1 Bft) SW 225 0,1 C 0,4 C 1,9 km/h (1 Bft)
22.03.2015 13:55 1,9 C 88 % 1017,2 hPa 0,0 l/m 4,5 km/h (1 Bft) N-NO 22 0,1 C 1,9 C 5,3 km/h (1 Bft)
22.03.2015 14:00 1,9 C 88 % 1017,2 hPa 0,0 l/m 3,9 km/h (1 Bft) O-NO 67 0,1 C 1,9 C 3,4 km/h (1 Bft)
22.03.2015 14:05 2,0 C 88 % 1017,2 hPa 0,0 l/m 3,4 km/h (1 Bft) O-NO 67 0,2 C 2,0 C 3,1 km/h (1 Bft)
22.03.2015 14:10 2,0 C 88 % 1017,2 hPa 0,0 l/m 2,6 km/h (1 Bft) N-NO 22 0,2 C 2,0 C 5,1 km/h (1 Bft)
22.03.2015 14:15 2,0 C 88 % 1017,2 hPa 1,4 l/m 4,2 km/h (1 Bft) N-NO 22 0,2 C 2,0 C 9,5 km/h (2 Bft)
22.03.2015 14:20 2,0 C 87 % 1017,2 hPa 0,7 l/m 5,0 km/h (1 Bft) N-NO 22 0,1 C 0,7 C 5,5 km/h (1 Bft)
22.03.2015 14:25 2,0 C 87 % 1017,3 hPa 0,0 l/m 4,3 km/h (1 Bft) N 360 0,1 C 2,0 C 5,3 km/h (1 Bft)
22.03.2015 14:30 2,1 C 87 % 1017,3 hPa 0,0 l/m 4,7 km/h (1 Bft) NO 45 0,2 C 0,9 C 2,1 km/h (1 Bft)
22.03.2015 14:35 2,1 C 88 % 1017,3 hPa 0,0 l/m 4,2 km/h (1 Bft) N-NW 337 0,3 C 2,1 C 3,7 km/h (1 Bft)
22.03.2015 14:40 2,1 C 87 % 1017,3 hPa 0,0 l/m 2,9 km/h (1 Bft) O-NO 67 0,2 C 2,1 C 4,7 km/h (1 Bft)
22.03.2015 14:45 2,1 C 88 % 1017,5 hPa 0,0 l/m 2,7 km/h (1 Bft) N-NO 22 0,3 C 2,1 C 4,8 km/h (1 Bft)
22.03.2015 14:50 2,1 C 88 % 1017,5 hPa 0,0 l/m 3,7 km/h (1 Bft) N-NO 22 0,3 C 2,1 C 5,0 km/h (1 Bft)
22.03.2015 14:55 2,1 C 88 % 1017,5 hPa 0,0 l/m 4,8 km/h (1 Bft) NO 45 0,3 C 0,9 C 7,9 km/h (2 Bft)
22.03.2015 15:00 2,1 C 88 % 1017,5 hPa 0,0 l/m 4,7 km/h (1 Bft) NO 45 0,3 C 0,9 C 2,4 km/h (1 Bft)
22.03.2015 15:05 2,1 C 88 % 1017,4 hPa 0,0 l/m 5,0 km/h (1 Bft) NO 45 0,3 C 0,8 C 6,9 km/h (2 Bft)
22.03.2015 15:10 2,0 C 88 % 1017,4 hPa 0,0 l/m 5,8 km/h (2 Bft) N-NO 22 0,2 C 0,4 C 6,4 km/h (2 Bft)
22.03.2015 15:15 2,0 C 88 % 1017,4 hPa 0,0 l/m 5,6 km/h (1 Bft) NO 45 0,2 C 0,4 C 3,9 km/h (1 Bft)
22.03.2015 15:20 2,1 C 88 % 1017,4 hPa 0,0 l/m 5,3 km/h (1 Bft) O 90 0,3 C 0,7 C 7,4 km/h (2 Bft)
22.03.2015 15:25 2,1 C 88 % 1017,5 hPa 0,0 l/m 4,5 km/h (1 Bft) N-NO 22 0,3 C 2,1 C 0,0 km/h (0 Bft)
22.03.2015 15:27 2,1 C 88 % 1017,5 hPa 0,0 l/m 4,0 km/h (1 Bft) NO 45 0,3 C 2,1 C 4,7 km/h (1 Bft)
22.03.2015 15:30 2,1 C 88 % 1017,5 hPa 0,0 l/m 4,0 km/h (1 Bft) NO 45 0,3 C 2,1 C 4,7 km/h (1 Bft)
22.03.2015 15:32 2,1 C 88 % 1017,5 hPa 0,0 l/m 3,2 km/h (1 Bft) N-NO 22 0,3 C 2,1 C 0,0 km/h (0 Bft)
22.03.2015 15:37 2,1 C 88 % 1017,5 hPa 0,0 l/m 2,7 km/h (1 Bft) O 90 0,3 C 2,1 C 4,2 km/h (1 Bft)
22.03.2015 15:38 2,1 C 88 % 1017,5 hPa 0,0 l/m 2,7 km/h (1 Bft) O 90 0,3 C 2,1 C 4,2 km/h (1 Bft)
22.03.2015 15:40 2,1 C 88 % 1017,5 hPa 0,0 l/m 2,7 km/h (1 Bft) O 90 0,3 C 2,1 C 4,2 km/h (1 Bft)
22.03.2015 15:45 2,1 C 88 % 1017,5 hPa 0,0 l/m 2,6 km/h (1 Bft) N-NO 22 0,3 C 2,1 C 3,1 km/h (1 Bft)
22.03.2015 15:50 2,1 C 88 % 1017,5 hPa 0,0 l/m 2,4 km/h (1 Bft) NO 45 0,3 C 2,1 C 4,3 km/h (1 Bft)
22.03.2015 15:52 2,1 C 88 % 1017,5 hPa 0,0 l/m 1,1 km/h (1 Bft) O-NO 67 0,3 C 2,1 C 0,0 km/h (0 Bft)
22.03.2015 15:55 2,1 C 88 % 1017,5 hPa 0,0 l/m 1,1 km/h (1 Bft) O-NO 67 0,3 C 2,1 C 0,0 km/h (0 Bft)
22.03.2015 16:00 2,2 C 88 % 1017,5 hPa 0,0 l/m 1,3 km/h (1 Bft) O-NO 67 0,4 C 2,2 C 5,6 km/h (1 Bft)
22.03.2015 16:05 2,2 C 88 % 1017,6 hPa 0,0 l/m 1,1 km/h (1 Bft) O-SO 112 0,4 C 2,2 C 3,4 km/h (1 Bft)
22.03.2015 16:10 2,2 C 88 % 1017,6 hPa 0,0 l/m 1,0 km/h (0 Bft) N-NO 22 0,4 C 2,2 C 0,0 km/h (0 Bft)
22.03.2015 16:15 2,3 C 88 % 1017,6 hPa 0,0 l/m 0,5 km/h (0 Bft) O-NO 67 0,5 C 2,3 C 1,6 km/h (1 Bft)
22.03.2015 16:20 2,3 C 88 % 1017,6 hPa 0,0 l/m 0,6 km/h (0 Bft) NO 45 0,5 C 2,3 C 0,0 km/h (0 Bft)
22.03.2015 16:25 2,2 C 88 % 1017,6 hPa 0,0 l/m 0,5 km/h (0 Bft) NO 45 0,4 C 2,2 C 0,0 km/h (0 Bft)
22.03.2015 16:30 2,2 C 88 % 1017,6 hPa 0,0 l/m 0,2 km/h (0 Bft) O 90 0,4 C 2,2 C 0,0 km/h (0 Bft)
22.03.2015 16:35 2,2 C 88 % 1017,6 hPa 0,0 l/m 0,3 km/h (0 Bft) O 90 0,4 C 2,2 C 6,3 km/h (2 Bft)
22.03.2015 16:40 2,2 C 88 % 1017,6 hPa 0,0 l/m 0,8 km/h (0 Bft) N-NW 337 0,4 C 2,2 C 1,6 km/h (1 Bft)
22.03.2015 16:45 2,2 C 88 % 1017,6 hPa 0,0 l/m 0,8 km/h (0 Bft) SO 135 0,4 C 2,2 C 0,0 km/h (0 Bft)
22.03.2015 16:50 2,2 C 88 % 1017,6 hPa 0,0 l/m 0,3 km/h (0 Bft) N-NO 22 0,4 C 2,2 C 1,9 km/h (1 Bft)
22.03.2015 16:55 2,2 C 88 % 1017,6 hPa 0,0 l/m 0,3 km/h (0 Bft) S 180 0,4 C 2,2 C 0,0 km/h (0 Bft)
22.03.2015 17:00 2,2 C 89 % 1017,6 hPa 0,0 l/m 0,3 km/h (0 Bft) N-NO 22 0,6 C 2,2 C 3,5 km/h (1 Bft)
22.03.2015 17:05 2,2 C 89 % 1017,3 hPa 0,0 l/m 0,6 km/h (0 Bft) O 90 0,6 C 2,2 C 3,7 km/h (1 Bft)
22.03.2015 17:10 2,1 C 87 % 1017,3 hPa 0,0 l/m 0,6 km/h (0 Bft) NO 45 0,2 C 2,1 C 0,0 km/h (0 Bft)
22.03.2015 17:15 2,1 C 87 % 1017,3 hPa 0,0 l/m 0,8 km/h (0 Bft) N-NO 22 0,2 C 2,1 C 7,9 km/h (2 Bft)
22.03.2015 17:20 2,1 C 87 % 1017,3 hPa 0,0 l/m 0,8 km/h (0 Bft) N-NO 22 0,2 C 2,1 C 0,0 km/h (0 Bft)
22.03.2015 17:25 2,1 C 90 % 1017,6 hPa 0,0 l/m 0,6 km/h (0 Bft) N-NO 22 0,6 C 2,1 C 0,0 km/h (0 Bft)
22.03.2015 17:30 2,0 C 90 % 1017,6 hPa 0,0 l/m 0,2 km/h (0 Bft) O-SO 112 0,5 C 2,0 C 0,0 km/h (0 Bft)
22.03.2015 17:35 2,0 C 90 % 1017,6 hPa 0,0 l/m 0,0 km/h (0 Bft) W 270 0,5 C 2,0 C 0,0 km/h (0 Bft)
22.03.2015 17:40 2,0 C 90 % 1017,6 hPa 0,0 l/m 0,0 km/h (0 Bft) O-NO 67 0,5 C 2,0 C 0,0 km/h (0 Bft)
22.03.2015 17:45 2,0 C 90 % 1017,4 hPa 0,0 l/m 0,3 km/h (0 Bft) O-SO 112 0,5 C 2,0 C 2,1 km/h (1 Bft)
22.03.2015 17:50 2,0 C 90 % 1017,4 hPa 0,0 l/m 0,6 km/h (0 Bft) NO 45 0,5 C 2,0 C 2,9 km/h (1 Bft)
22.03.2015 17:55 2,0 C 90 % 1017,4 hPa 0,0 l/m 0,5 km/h (0 Bft) NO 45 0,5 C 2,0 C 0,0 km/h (0 Bft)
22.03.2015 18:00 1,9 C 91 % 1017,4 hPa 0,0 l/m 0,5 km/h (0 Bft) N-NO 22 0,6 C 1,9 C 2,9 km/h (1 Bft)
22.03.2015 18:05 2,0 C 91 % 1017,4 hPa 0,0 l/m 0,6 km/h (0 Bft) NO 45 0,7 C 2,0 C 3,4 km/h (1 Bft)
22.03.2015 18:10 2,0 C 91 % 1017,4 hPa 0,0 l/m 1,4 km/h (1 Bft) NO 45 0,7 C 2,0 C 2,3 km/h (1 Bft)
22.03.2015 18:15 2,0 C 91 % 1017,4 hPa 0,0 l/m 2,4 km/h (1 Bft) NO 45 0,7 C 2,0 C 3,7 km/h (1 Bft)
22.03.2015 18:20 2,0 C 91 % 1017,4 hPa 0,0 l/m 2,4 km/h (1 Bft) O 90 0,7 C 2,0 C 3,5 km/h (1 Bft)
22.03.2015 18:25 2,0 C 92 % 1017,6 hPa 0,0 l/m 2,4 km/h (1 Bft) N-NO 22 0,8 C 2,0 C 2,6 km/h (1 Bft)
22.03.2015 18:30 1,9 C 92 % 1017,6 hPa 0,0 l/m 1,4 km/h (1 Bft) N-NO 22 0,7 C 1,9 C 2,9 km/h (1 Bft)
22.03.2015 18:35 1,8 C 92 % 1017,6 hPa 0,0 l/m 0,6 km/h (0 Bft) S 180 0,6 C 1,8 C 0,0 km/h (0 Bft)
22.03.2015 18:40 1,9 C 92 % 1017,6 hPa 0,0 l/m 0,3 km/h (0 Bft) O-NO 67 0,7 C 1,9 C 1,9 km/h (1 Bft)
22.03.2015 18:45 1,9 C 92 % 1017,6 hPa 0,0 l/m 0,6 km/h (0 Bft) O-SO 112 0,7 C 1,9 C 0,0 km/h (0 Bft)
22.03.2015 18:50 1,8 C 92 % 1017,6 hPa 0,0 l/m 0,6 km/h (0 Bft) NO 45 0,6 C 1,8 C 0,0 km/h (0 Bft)
22.03.2015 18:55 1,8 C 92 % 1017,6 hPa 0,0 l/m 0,2 km/h (0 Bft) SW 225 0,6 C 1,8 C 0,0 km/h (0 Bft)
22.03.2015 19:00 1,8 C 92 % 1017,6 hPa 0,0 l/m 0,2 km/h (0 Bft) NO 45 0,6 C 1,8 C 0,0 km/h (0 Bft)
22.03.2015 19:05 1,9 C 92 % 1017,6 hPa 0,0 l/m 0,5 km/h (0 Bft) NO 45 0,7 C 1,9 C 0,0 km/h (0 Bft)
22.03.2015 19:10 1,9 C 92 % 1017,6 hPa 0,0 l/m 0,5 km/h (0 Bft) O-NO 67 0,7 C 1,9 C 0,0 km/h (0 Bft)
22.03.2015 19:15 1,9 C 92 % 1017,6 hPa 0,0 l/m 0,3 km/h (0 Bft) NO 45 0,7 C 1,9 C 1,9 km/h (1 Bft)
22.03.2015 19:20 2,0 C 92 % 1017,6 hPa 0,0 l/m 0,8 km/h (0 Bft) O 90 0,8 C 2,0 C 3,4 km/h (1 Bft)
22.03.2015 19:25 1,9 C 92 % 1017,9 hPa 0,0 l/m 1,4 km/h (1 Bft) O-NO 67 0,7 C 1,9 C 1,6 km/h (1 Bft)
22.03.2015 19:30 1,9 C 92 % 1017,9 hPa 0,0 l/m 1,0 km/h (0 Bft) W-SW 247 0,7 C 1,9 C 0,0 km/h (0 Bft)
22.03.2015 19:35 1,9 C 92 % 1017,9 hPa 0,0 l/m 0,2 km/h (0 Bft) O-SO 112 0,7 C 1,9 C 0,0 km/h (0 Bft)
22.03.2015 19:40 1,9 C 92 % 1017,9 hPa 0,0 l/m 0,3 km/h (0 Bft) W 270 0,7 C 1,9 C 1,9 km/h (1 Bft)
22.03.2015 19:41 1,9 C 92 % 1017,9 hPa 0,0 l/m 0,3 km/h (0 Bft) W 270 0,7 C 1,9 C 1,9 km/h (1 Bft)
22.03.2015 19:45 1,9 C 92 % 1017,7 hPa 0,0 l/m 0,3 km/h (0 Bft) N-NO 22 0,7 C 1,9 C 0,0 km/h (0 Bft)
22.03.2015 19:50 1,9 C 92 % 1017,7 hPa 0,0 l/m 0,3 km/h (0 Bft) W-NW 292 0,7 C 1,9 C 0,0 km/h (0 Bft)
22.03.2015 19:52 1,9 C 92 % 1017,7 hPa 0,0 l/m 0,3 km/h (0 Bft) W-NW 292 0,7 C 1,9 C 0,0 km/h (0 Bft)
22.03.2015 19:54 1,9 C 92 % 1017,7 hPa 0,0 l/m 0,3 km/h (0 Bft) W-NW 292 0,7 C 1,9 C 0,0 km/h (0 Bft)
22.03.2015 19:57 2,0 C 92 % 1017,7 hPa 0,0 l/m 0,3 km/h (0 Bft) W-NW 292 0,8 C 2,0 C 0,0 km/h (0 Bft)
22.03.2015 20:02 1,9 C 93 % 1017,9 hPa 0,0 l/m 0,3 km/h (0 Bft) W-NW 292 0,9 C 1,9 C 0,0 km/h (0 Bft)
22.03.2015 20:07 1,9 C 93 % 1017,9 hPa 0,0 l/m 0,0 km/h (0 Bft) W-NW 292 0,9 C 1,9 C 0,0 km/h (0 Bft)
22.03.2015 20:10 1,9 C 93 % 1017,9 hPa 0,0 l/m 0,0 km/h (0 Bft) W-NW 292 0,9 C 1,9 C 0,0 km/h (0 Bft)
22.03.2015 20:15 2,0 C 93 % 1017,9 hPa 0,0 l/m 0,0 km/h (0 Bft) W-NW 292 1,0 C 2,0 C 0,0 km/h (0 Bft)
22.03.2015 20:20 2,0 C 93 % 1017,9 hPa 0,0 l/m 0,0 km/h (0 Bft) W-NW 292 1,0 C 2,0 C 0,0 km/h (0 Bft)
22.03.2015 20:25 2,0 C 93 % 1018,2 hPa 0,0 l/m 0,0 km/h (0 Bft) W-NW 292 1,0 C 2,0 C 0,0 km/h (0 Bft)
22.03.2015 20:30 2,0 C 93 % 1018,2 hPa 0,0 l/m 0,0 km/h (0 Bft) W-NW 292 1,0 C 2,0 C 0,0 km/h (0 Bft)
22.03.2015 20:35 2,0 C 93 % 1018,2 hPa 0,0 l/m 0,0 km/h (0 Bft) W-NW 292 1,0 C 2,0 C 0,0 km/h (0 Bft)
22.03.2015 20:40 1,9 C 93 % 1018,2 hPa 0,0 l/m 0,0 km/h (0 Bft) W-NW 292 0,9 C 1,9 C 0,0 km/h (0 Bft)
22.03.2015 20:45 2,0 C 93 % 1017,9 hPa 0,0 l/m 0,0 km/h (0 Bft) W-NW 292 1,0 C 2,0 C 0,0 km/h (0 Bft)
22.03.2015 20:47 2,0 C 93 % 1017,9 hPa 0,0 l/m 1,3 km/h (1 Bft) NO 45 1,0 C 2,0 C 2,9 km/h (1 Bft)
22.03.2015 20:50 2,0 C 93 % 1017,9 hPa 0,0 l/m 1,3 km/h (1 Bft) NO 45 1,0 C 2,0 C 2,9 km/h (1 Bft)
22.03.2015 20:52 2,0 C 93 % 1017,9 hPa 0,0 l/m 1,3 km/h (1 Bft) NO 45 1,0 C 2,0 C 0,0 km/h (0 Bft)
22.03.2015 20:57 2,0 C 93 % 1017,9 hPa 0,0 l/m 1,0 km/h (0 Bft) N-NO 22 1,0 C 2,0 C 1,9 km/h (1 Bft)
22.03.2015 21:00 2,0 C 93 % 1017,9 hPa 0,0 l/m 1,0 km/h (0 Bft) N-NO 22 1,0 C 2,0 C 1,9 km/h (1 Bft)
22.03.2015 21:05 1,9 C 93 % 1018,1 hPa 0,0 l/m 0,6 km/h (0 Bft) O 90 0,9 C 1,9 C 0,0 km/h (0 Bft)
22.03.2015 21:10 2,0 C 93 % 1018,1 hPa 0,0 l/m 0,8 km/h (0 Bft) N-NO 22 1,0 C 2,0 C 3,2 km/h (1 Bft)
22.03.2015 21:15 2,0 C 93 % 1018,1 hPa 0,0 l/m 0,6 km/h (0 Bft) SW 225 1,0 C 2,0 C 0,0 km/h (0 Bft)
22.03.2015 21:20 2,0 C 93 % 1018,1 hPa 0,0 l/m 1,0 km/h (0 Bft) NO 45 1,0 C 2,0 C 4,2 km/h (1 Bft)
22.03.2015 21:25 1,9 C 94 % 1018,2 hPa 0,0 l/m 1,1 km/h (1 Bft) NO 45 1,0 C 1,9 C 0,0 km/h (0 Bft)
22.03.2015 21:30 2,0 C 93 % 1018,2 hPa 0,0 l/m 1,0 km/h (0 Bft) O 90 1,0 C 2,0 C 0,0 km/h (0 Bft)
22.03.2015 21:35 1,9 C 94 % 1018,2 hPa 0,0 l/m 0,6 km/h (0 Bft) O-NO 67 1,0 C 1,9 C 0,0 km/h (0 Bft)
22.03.2015 21:40 2,0 C 93 % 1018,2 hPa 0,0 l/m 0,6 km/h (0 Bft) O-NO 67 1,0 C 2,0 C 0,0 km/h (0 Bft)
22.03.2015 21:45 1,9 C 94 % 1018,1 hPa 0,0 l/m 0,8 km/h (0 Bft) N-NO 22 1,0 C 1,9 C 0,0 km/h (0 Bft)
22.03.2015 21:50 1,9 C 94 % 1018,1 hPa 0,0 l/m 0,5 km/h (0 Bft) N-NO 22 1,0 C 1,9 C 0,0 km/h (0 Bft)
22.03.2015 21:55 1,9 C 94 % 1018,1 hPa 0,0 l/m 0,3 km/h (0 Bft) S-SW 202 1,0 C 1,9 C 0,0 km/h (0 Bft)
22.03.2015 22:00 1,9 C 94 % 1018,1 hPa 0,0 l/m 0,0 km/h (0 Bft) N-NO 22 1,0 C 1,9 C 0,0 km/h (0 Bft)
22.03.2015 22:05 1,9 C 94 % 1018,1 hPa 0,0 l/m 0,0 km/h (0 Bft) W-SW 247 1,0 C 1,9 C 0,0 km/h (0 Bft)
22.03.2015 22:10 1,9 C 94 % 1018,1 hPa 0,0 l/m 0,0 km/h (0 Bft) NO 45 1,0 C 1,9 C 0,0 km/h (0 Bft)
22.03.2015 22:15 2,0 C 93 % 1018,1 hPa 0,0 l/m 0,0 km/h (0 Bft) SO 135 1,0 C 2,0 C 0,0 km/h (0 Bft)
22.03.2015 22:20 1,9 C 94 % 1018,1 hPa 0,0 l/m 0,0 km/h (0 Bft) O-SO 112 1,0 C 1,9 C 0,0 km/h (0 Bft)
22.03.2015 22:25 1,9 C 94 % 1017,9 hPa 0,0 l/m 0,0 km/h (0 Bft) NO 45 1,0 C 1,9 C 0,0 km/h (0 Bft)
22.03.2015 22:30 1,9 C 94 % 1017,9 hPa 0,0 l/m 0,0 km/h (0 Bft) SW 225 1,0 C 1,9 C 0,0 km/h (0 Bft)
22.03.2015 22:35 1,9 C 93 % 1017,9 hPa 0,0 l/m 0,0 km/h (0 Bft) O-NO 67 0,9 C 1,9 C 0,0 km/h (0 Bft)
22.03.2015 22:40 1,9 C 93 % 1017,9 hPa 0,0 l/m 0,0 km/h (0 Bft) NW 315 0,9 C 1,9 C 0,0 km/h (0 Bft)
22.03.2015 22:45 1,9 C 93 % 1017,8 hPa 0,0 l/m 0,2 km/h (0 Bft) W-NW 292 0,9 C 1,9 C 0,0 km/h (0 Bft)
22.03.2015 22:50 1,9 C 93 % 1017,8 hPa 0,0 l/m 0,2 km/h (0 Bft) W-SW 247 0,9 C 1,9 C 0,0 km/h (0 Bft)
22.03.2015 22:55 1,9 C 93 % 1017,8 hPa 0,0 l/m 0,0 km/h (0 Bft) O-NO 67 0,9 C 1,9 C 0,0 km/h (0 Bft)
22.03.2015 23:00 1,9 C 93 % 1017,8 hPa 0,0 l/m 0,0 km/h (0 Bft) W 270 0,9 C 1,9 C 0,0 km/h (0 Bft)
22.03.2015 23:05 1,9 C 93 % 1017,8 hPa 0,0 l/m 0,0 km/h (0 Bft) O-SO 112 0,9 C 1,9 C 1,9 km/h (1 Bft)
22.03.2015 23:10 1,9 C 93 % 1017,8 hPa 0,0 l/m 0,0 km/h (0 Bft) NO 45 0,9 C 1,9 C 0,0 km/h (0 Bft)
22.03.2015 23:15 1,9 C 93 % 1017,8 hPa 0,0 l/m 0,2 km/h (0 Bft) N-NW 337 0,9 C 1,9 C 0,0 km/h (0 Bft)
22.03.2015 23:20 1,9 C 93 % 1017,8 hPa 0,0 l/m 0,0 km/h (0 Bft) S 180 0,9 C 1,9 C 0,0 km/h (0 Bft)
22.03.2015 23:25 1,8 C 93 % 1017,8 hPa 0,0 l/m 0,0 km/h (0 Bft) SO 135 0,8 C 1,8 C 0,0 km/h (0 Bft)
22.03.2015 23:30 1,9 C 93 % 1017,8 hPa 0,0 l/m 0,2 km/h (0 Bft) NO 45 0,9 C 1,9 C 0,0 km/h (0 Bft)
22.03.2015 23:35 1,9 C 93 % 1017,8 hPa 0,0 l/m 0,2 km/h (0 Bft) N-NO 22 0,9 C 1,9 C 0,0 km/h (0 Bft)
22.03.2015 23:40 1,9 C 93 % 1017,8 hPa 0,0 l/m 0,0 km/h (0 Bft) NW 315 0,9 C 1,9 C 0,0 km/h (0 Bft)
22.03.2015 23:45 1,8 C 93 % 1017,4 hPa 0,0 l/m 0,0 km/h (0 Bft) S-SO 157 0,8 C 1,8 C 0,0 km/h (0 Bft)
22.03.2015 23:50 1,8 C 93 % 1017,4 hPa 0,0 l/m 0,0 km/h (0 Bft) N-NO 22 0,8 C 1,8 C 0,0 km/h (0 Bft)
22.03.2015 23:55 1,9 C 93 % 1017,4 hPa 0,0 l/m 0,0 km/h (0 Bft) N-NO 22 0,9 C 1,9 C 0,0 km/h (0 Bft)
_ Min-Zeit 06:55 04:15 00:20 - 23:55 - - 04:15 13:10 23:55
Minimum _ 0,1 C 85 % 1015,3 hPa - 0,0 km/h (0 Bft) - - -2,1 C 0,0 C 0,0 km/h (0 Bft)
_ Max-Zeit 16:20 22:30 21:40 14:15 13:10 - - 22:30 16:20 13:45
Maximum _ 2,3 C 94 % 1018,2 hPa 1,4 l/m 6,3 km/h
NO (2 Bft)
- - 1,0 C 2,3 C 14,2 km/h
NO (3 Bft)
Durchschnitt _ 1,2 C 89 % 1017,0 hPa #4,8 l/m 1,0 km/h (0 Bft) NO - -0,5 C 1,1 C 1,6 km/h (1 Bft)